Starlink 33670

operational
NORAD ID: 63413 Int'l Des: 2025-065 Owner: SPXS Country: US Constellation: starlink
LEOCIRCULAR

About Starlink 33670

Description loading...

Live Position

Loading 3D Globe...

Upcoming Passes

Altitude History

Altitude vs Time

uPlot chart will show altitude changes over time

Two-Line Element Set

1 63413U 25065Q 25301.55919153 .00031035 00000-0 11314-2 0 9998
2 63413 43.0031 133.1238 0003125 269.3260 90.7234 15.27612960 32638
Epoch: Oct 28, 2025 • Age: 20 hours

Current Status

Altitude 489.4 km
Velocity 7.62 km/s
Sub-Earth Point -30.08°S, 170.04°E
Launch Date Mar 31, 2025
Age 0.5 years
Type internet

Technical Details

Classification Payload
Mass 575.00 kg
Dry Mass 530.00 kg
Total Mass 575.00 kg
Length 0.30 m
Diameter 4.10 m
Span 29.00 m
Shape Box + pan
Manufacturer SPXS
Bus Type Starlink V2MO
Phase Status In Orbit
Owner/State SPXS/US

Large Constellations

Loading constellations...